| time (UTC) | temp F | wind direction | speed MPH | gust MPH | rain 1hr in | rain 24hr in | rain mn in | humidity % | barometer mb |
| 20260507040115 | 42 | 90 | 1.0 | 4.0 | 0.00 | 0.77 | 0.00 | 94 | 1011.9 |
| 20260507034600 | 42 | 86 | 2.0 | 4.0 | 0.00 | 0.83 | 0.77 | 94 | 1011.8 |
| 20260507033101 | 42 | 94 | 1.0 | 5.0 | 0.00 | 0.83 | 0.77 | 94 | 1011.8 |
| 20260507031607 | 42 | 89 | 3.0 | 4.0 | 0.00 | 0.83 | 0.77 | 94 | 1011.7 |
| 20260507030057 | 42 | 100 | 2.0 | 4.0 | 0.00 | 0.83 | 0.77 | 93 | 1011.5 |
| 20260507024605 | 42 | 98 | 0.0 | 2.0 | 0.00 | 0.86 | 0.77 | 93 | 1011.6 |
| 20260507023100 | 42 | 0 | 1.0 | 3.0 | 0.00 | 0.86 | 0.77 | 93 | 1011.6 |
| 20260507021600 | 42 | 98 | 0.0 | 4.0 | 0.00 | 0.86 | 0.77 | 93 | 1011.7 |
| 20260507020104 | 42 | 97 | 1.0 | 5.0 | 0.00 | 0.86 | 0.77 | 93 | 1011.9 |
| 20260507014612 | 42 | 0 | 1.0 | 6.0 | 0.00 | 0.88 | 0.77 | 92 | 1011.7 |
| 20260507013056 | 43 | 97 | 4.0 | 8.0 | 0.01 | 0.88 | 0.77 | 92 | 1011.9 |
| 20260507011604 | 43 | 98 | 2.0 | 4.0 | 0.02 | 0.88 | 0.77 | 92 | 1011.7 |
| 20260507010109 | 44 | 103 | 1.0 | 3.0 | 0.04 | 0.88 | 0.77 | 91 | 1011.1 |
| 20260507004611 | 44 | 117 | 2.0 | 10.0 | 0.06 | 0.92 | 0.77 | 89 | 1011.1 |
| 20260507003059 | 46 | 101 | 0.0 | 1.0 | 0.05 | 0.91 | 0.76 | 89 | 1010.6 |
| 20260507001558 | 46 | 0 | 0.0 | 1.0 | 0.04 | 0.90 | 0.75 | 87 | 1010.2 |
| 20260507000056 | 47 | 0 | 0.0 | 1.0 | 0.02 | 0.88 | 0.73 | 87 | 1010.2 |
| 20260506234555 | 47 | 0 | 0.0 | 1.0 | 0.00 | 0.94 | 0.71 | 86 | 1010.1 |
| 20260506233059 | 47 | 0 | 0.0 | 1.0 | 0.00 | 0.94 | 0.71 | 84 | 1009.6 |
| 20260506231601 | 47 | 0 | 0.0 | 1.0 | 0.00 | 0.94 | 0.71 | 84 | 1009.6 |
| 20260506230056 | 47 | 0 | 0.0 | 0.0 | 0.00 | 0.94 | 0.71 | 83 | 1009.6 |
| 20260506224556 | 48 | 0 | 0.0 | 1.0 | 0.00 | 0.97 | 0.71 | 83 | 1009.3 |
| 20260506223058 | 48 | 0 | 0.0 | 1.0 | 0.00 | 0.97 | 0.71 | 83 | 1009.4 |
| 20260506221557 | 48 | 0 | 0.0 | 1.0 | 0.00 | 0.97 | 0.71 | 83 | 1009.3 |
| 20260506220054 | 48 | 101 | 0.0 | 1.0 | 0.00 | 0.97 | 0.71 | 82 | 1009.2 |
| 20260506214603 | 48 | 0 | 0.0 | 2.0 | 0.00 | 0.97 | 0.71 | 81 | 1009.3 |
| 20260506213055 | 49 | 101 | 1.0 | 5.0 | 0.00 | 0.97 | 0.71 | 82 | 1009.5 |
| 20260506211605 | 48 | 96 | 1.0 | 3.0 | 0.00 | 0.97 | 0.71 | 81 | 1009.3 |
| 20260506210129 | 48 | 96 | 0.0 | 2.0 | 0.00 | 0.97 | 0.71 | 83 | 1009.3 |
| 20260506204554 | 48 | 0 | 0.0 | 2.0 | 0.00 | 0.97 | 0.71 | 84 | 1009.2 |
| 20260506203057 | 48 | 0 | 0.0 | 2.0 | 0.00 | 0.97 | 0.71 | 83 | 1009.3 |
| 20260506201556 | 48 | 96 | 1.0 | 3.0 | 0.00 | 0.97 | 0.71 | 84 | 1009.2 |
| 20260506200106 | 48 | 96 | 0.0 | 4.0 | 0.00 | 0.97 | 0.71 | 84 | 1009.4 |
| 20260506194605 | 48 | 96 | 1.0 | 3.0 | 0.00 | 0.97 | 0.71 | 86 | 1009.2 |
| 20260506193055 | 47 | 96 | 1.0 | 3.0 | 0.00 | 0.97 | 0.71 | 86 | 1009.3 |
| 20260506191607 | 47 | 96 | 1.0 | 4.0 | 0.00 | 0.97 | 0.71 | 87 | 1009.2 |
| 20260506190054 | 47 | 122 | 1.0 | 4.0 | 0.00 | 0.97 | 0.71 | 89 | 1009.3 |
| 20260506184557 | 46 | 150 | 2.0 | 4.0 | 0.00 | 0.97 | 0.71 | 90 | 1009.3 |
| 20260506183106 | 45 | 160 | 2.0 | 4.0 | 0.00 | 0.97 | 0.71 | 91 | 1009.4 |
| 20260506181601 | 45 | 137 | 2.0 | 5.0 | 0.00 | 0.97 | 0.71 | 91 | 1009.4 |
| 20260506180112 | 45 | 139 | 2.0 | 4.0 | 0.00 | 0.97 | 0.71 | 91 | 1009.6 |
| 20260506174630 | 45 | 155 | 1.0 | 3.0 | 0.00 | 0.97 | 0.71 | 92 | 1009.2 |
| 20260506173135 | 45 | 165 | 1.0 | 4.0 | 0.00 | 0.97 | 0.71 | 92 | 1008.9 |
| 20260506171556 | 45 | 138 | 2.0 | 4.0 | 0.00 | 0.97 | 0.71 | 91 | 1008.5 |
| 20260506170057 | 45 | 141 | 2.0 | 4.0 | 0.00 | 0.97 | 0.71 | 92 | 1008.7 |
| 20260506164556 | 45 | 0 | 2.0 | 6.0 | 0.00 | 0.97 | 0.71 | 92 | 1008.7 |
| 20260506163100 | 45 | 140 | 1.0 | 5.0 | 0.00 | 0.97 | 0.71 | 94 | 1008.5 |
| 20260506161557 | 45 | 172 | 1.0 | 4.0 | 0.01 | 0.97 | 0.71 | 94 | 1008.5 |
| 20260506160100 | 45 | 140 | 2.0 | 4.0 | 0.01 | 0.97 | 0.71 | 94 | 1008.6 |
| 20260506154558 | 45 | 145 | 2.0 | 5.0 | 0.01 | 0.97 | 0.71 | 94 | 1008.7 |
| 20260506153057 | 45 | 154 | 1.0 | 4.0 | 0.01 | 0.97 | 0.71 | 95 | 1008.4 |
| 20260506151558 | 44 | 160 | 2.0 | 3.0 | 0.00 | 0.96 | 0.70 | 95 | 1008.4 |
| 20260506150059 | 44 | 148 | 1.0 | 3.0 | 0.01 | 0.96 | 0.70 | 95 | 1008.4 |
| 20260506144606 | 45 | 141 | 1.0 | 4.0 | 0.01 | 0.96 | 0.70 | 95 | 1008.3 |
| 20260506143056 | 45 | 292 | 1.0 | 3.0 | 0.02 | 0.96 | 0.70 | 95 | 1007.9 |
| 20260506141559 | 44 | 155 | 0.0 | 3.0 | 0.02 | 0.96 | 0.70 | 95 | 1007.9 |
| 20260506140055 | 44 | 129 | 0.0 | 2.0 | 0.01 | 0.95 | 0.69 | 95 | 1008.1 |
| 20260506134605 | 44 | 0 | 0.0 | 2.0 | 0.01 | 0.95 | 0.69 | 95 | 1008.0 |
| 20260506133101 | 43 | 269 | 0.0 | 2.0 | 0.01 | 0.94 | 0.68 | 95 | 1008.0 |
| 20260506131556 | 43 | 217 | 1.0 | 4.0 | 0.01 | 0.94 | 0.68 | 95 | 1007.7 |
| 20260506130054 | 43 | 313 | 2.0 | 6.0 | 0.02 | 0.94 | 0.68 | 95 | 1007.8 |
| 20260506124555 | 43 | 161 | 0.0 | 4.0 | 0.03 | 0.94 | 0.68 | 95 | 1008.1 |
| 20260506123054 | 43 | 149 | 1.0 | 2.0 | 0.02 | 0.93 | 0.67 | 95 | 1008.0 |
| 20260506121554 | 43 | 0 | 0.0 | 2.0 | 0.03 | 0.93 | 0.67 | 95 | 1008.1 |
| 20260506120101 | 43 | 208 | 1.0 | 5.0 | 0.03 | 0.92 | 0.66 | 95 | 1008.2 |
| 20260506114554 | 43 | 231 | 1.0 | 4.0 | 0.02 | 0.91 | 0.65 | 95 | 1008.1 |
| 20260506113111 | 43 | 226 | 0.0 | 3.0 | 0.04 | 0.91 | 0.65 | 95 | 1007.8 |
| 20260506111555 | 43 | 0 | 2.0 | 6.0 | 0.04 | 0.90 | 0.64 | 95 | 1007.6 |
| 20260506110057 | 43 | 0 | 1.0 | 4.0 | 0.05 | 0.89 | 0.63 | 95 | 1007.6 |
| 20260506104558 | 43 | 188 | 1.0 | 5.0 | 0.07 | 0.89 | 0.63 | 95 | 1007.9 |
| 20260506103055 | 43 | 0 | 0.0 | 2.0 | 0.07 | 0.87 | 0.61 | 95 | 1008.1 |
| 20260506101553 | 44 | 169 | 1.0 | 4.0 | 0.06 | 0.86 | 0.60 | 95 | 1008.1 |
| 20260506094608 | 44 | 160 | 0.0 | 1.0 | 0.05 | 0.82 | 0.56 | 95 | 1007.9 |
| 20260506093053 | 44 | 160 | 0.0 | 3.0 | 0.05 | 0.80 | 0.54 | 94 | 1007.8 |
| 20260506091556 | 43 | 0 | 1.0 | 5.0 | 0.07 | 0.80 | 0.54 | 94 | 1007.4 |
| 20260506090055 | 44 | 0 | 1.0 | 2.0 | 0.09 | 0.79 | 0.52 | 94 | 1007.5 |
| 20260506084558 | 44 | 0 | 0.0 | 6.0 | 0.10 | 0.77 | 0.51 | 94 | 1008.1 |
| 20260506083059 | 44 | 264 | 2.0 | 6.0 | 0.10 | 0.75 | 0.49 | 94 | 1008.0 |
| 20260506081553 | 44 | 0 | 1.0 | 7.0 | 0.10 | 0.73 | 0.47 | 94 | 1008.3 |
| 20260506080109 | 45 | 284 | 0.0 | 2.0 | 0.10 | 0.70 | 0.44 | 94 | 1008.1 |
| 20260506073109 | 45 | 0 | 1.0 | 5.0 | 0.13 | 0.65 | 0.39 | 94 | 1008.1 |
| 20260506071557 | 45 | 175 | 1.0 | 7.0 | 0.16 | 0.63 | 0.37 | 94 | 1007.9 |
| 20260506061601 | 46 | 117 | 0.0 | 4.0 | 0.10 | 0.47 | 0.21 | 93 | 1008.1 |
| 20260506044554 | 46 | 117 | 0.0 | 2.0 | 0.07 | 0.31 | 0.05 | 93 | 1008.9 |
| 20260506043102 | 46 | 117 | 0.0 | 2.0 | 0.08 | 0.29 | 0.03 | 93 | 1008.9 |
| 20260506041558 | 46 | 0 | 0.0 | 2.0 | 0.07 | 0.28 | 0.02 | 92 | 1008.6 |